Location: *
(35.8942°N, 23.3025°E)
Time: 16:57:42
(UTC+00:00)

Gurwin Techsat 1B - Pass Details

Date: 08 April 2023
Orbit: 811 x 813 km, 98.9° (Epoch: 03 June)

Event Time Altitude Azimuth Distance (km) Brightness Sun altitude
Rises 02:42:19 0° 353° (N) 3,344 12.0 -16.7°
Reaches altitude 10° 02:45:33 10° 333° (NNW) 2,407 11.0 -16.1°
Maximum altitude 02:48:39 16° 297° (WNW) 2,014 10.3 -15.6°
Enters shadow 02:49:19 16° 288° (WNW) 2,032 10.2 -15.4°
